Regional Weather Roundup
Issued by NWS Charleston, SC

Current Version | Previous Version | Text Only | Print | Product List | Glossary Off
Versions: 1 2 3 4 5 6 7 8 9 10 11 12 13 14 15 16 17 18 19 20 21 22 23 24 25 26 27 28 29 30 31 32 33 34 35 36 37 38 39 40 41 42 43 44 45 46 47 48 49 50
000 ASUS42 KCHS 301826 RWRCHS REGIONAL WEATHER ROUNDUP NATIONAL WEATHER SERVICE CHARLESTON SC 200 PM EDT THU JUL 30 2015 NOTE: "FAIR" INDICATES FEW OR NO CLOUDS BELOW 12,000 FEET WITH NO SIGNIFICANT WEATHER AND/OR OBSTRUCTIONS TO VISIBILITY. NOT ALL STATIONS ARE QUALITY CONTROLLED BY THE NATIONAL WEATHER SERVICE. USE DATA WITH CAUTION...ESPECIALLY DEWPOINT OBSERVATIONS. SCZ027-030-031-034>040-042>050-301900- ...SOUTHEAST SOUTH CAROLINA... CITY SKY/WX TMP DP RH WIND PRES REMARKS N CHARLESTON MOSUNNY 94 71 47 NE9 29.93F HX 101 6HR MIN TEMP: 79; 6HR MAX TEMP: 94; WATERFRONT PRK N/A 87 78 74 SE7 29.92F HX 100 MOUNT PLEASANT FAIR 90 79 70 SE7 29.92F HX 105 JOHNS ISLAND FAIR 88 79 74 SE7 29.93F HX 102 PINOPOLIS NOT AVBL MONCKS CORNER FAIR 95 70 43 N3 29.93F HX 101 SUMMERVILLE FAIR 95 72 46 SW3 29.93F HX 103 BEAUFORT MCAS MOSUNNY 94 69 44 CALM 29.94F HX 99 6HR MIN TEMP: 80; 6HR MAX TEMP: 95; BEAUFORT ARPT FAIR 93 70 46 CALM 29.93F HX 99 HILTON HEAD IS MOSUNNY 90 79 70 SE7 29.97F HX 105 WALTERBORO PTCLDY 97 64 34 NW3 29.93F HX 99 ALLENDALE FAIR 95 72 46 CALM 29.92F HX 103 ...SOUTHERN MIDLANDS AND PEE DEE... CITY SKY/WX TMP DP RH WIND PRES REMARKS GEORGETOWN NOT AVBL KINGSTREE NOT AVBL ORANGEBURG MOSUNNY 95 69 42 VRB6 29.93F HX 100 6HR MIN TEMP: 78; 6HR MAX TEMP: 96; BARNWELL FAIR 97 70 41 CALM 29.93F HX 103 AIKEN CLOUDY 91 66 43 SW6 29.98F HX 94 MANNING FAIR 91 66 43 S3 29.92F HX 94 COLUMBIA PTSUNNY 95 69 42 VRB3 29.92F HX 100 6HR MIN TEMP: 80; 6HR MAX TEMP: 97; SUMTER MOSUNNY 98 67 36 VRB5 29.91F HX 102 6HR MIN TEMP: 78; 6HR MAX TEMP: 98; FLORENCE SUNNY 96 69 41 VRB3 29.92F HX 102 6HR MIN TEMP: 78; 6HR MAX TEMP: 97; MYRTLE BEACH MOSUNNY 90 73 58 SE10 29.95F HX 98 N MYRTLE BEACH SUNNY 93 67 42 CALM 29.93F HX 96 6HR MIN TEMP: 76; 6HR MAX TEMP: 93; $$ GAZ063-065-086>088-099>101-113>116-118-119-134>141-150-301900- ...SOUTHEAST GEORGIA... CITY SKY/WX TMP DP RH WIND PRES REMARKS SAVANNAH ARPT MOSUNNY 93 71 48 S7 29.94F HX 100 6HR MIN TEMP: 79; 6HR MAX TEMP: 95; HUNTER AAF MOSUNNY 91 77 65 SE6 29.93F HX 104 6HR MIN TEMP: 80; 6HR MAX TEMP: 93; FORT STEWART PTSUNNY 92 72 51 S6 29.93F HX 100 6HR MIN TEMP: 76; 6HR MAX TEMP: 94; STATESBORO SUNNY 94 75 53 S6 29.94F HX 106 SYLVANIA CLEAR 97 72 44 NW6 29.94F HX 105 CLAXTON MOCLDY 91 73 55 SW5 29.94F HX 100 ...CSRA...CENTRAL AND FAR SOUTHEAST GEORGIA... CITY SKY/WX TMP DP RH WIND PRES REMARKS THOMSON SUNNY 96 76 52 NW6 29.98F HX 110 AUGUSTA-BUSH MOSUNNY 94 74 52 CALM 29.93F HX 104 6HR MIN TEMP: 77; 6HR MAX TEMP: 95; 6HR PCP: TRACE; AUGUSTA-DANIEL MOSUNNY 95 73 48 S8 29.95F HX 104 SWAINSBORO FAIR 95 77 55 S7 29.95F HX 109 VIDALIA MOSUNNY 90 75 62 SE3 29.96F HX 100 EASTMAN FAIR 94 76 55 SE7 29.97F HX 107 HAZLEHURST FAIR 92 79 67 CALM 29.94F HX 109 ALMA MOSUNNY 89 77 67 S6 29.96F HX 101 6HR MIN TEMP: 74; 6HR MAX TEMP: 89; WAYCROSS MOSUNNY 92 80 67 SW3 29.95F HX 110 JESUP FAIR 95 73 49 SE3 29.94F HX 105 BAXLEY FAIR 91 77 62 S3 29.95F HX 105 BRUNSWICK CLOUDY 88 77 70 SE9 29.96F HX 100 SAINT SIMONS SUNNY 87 76 69 SE10 29.97F HX 97 6HR MIN TEMP: 79; 6HR MAX TEMP: 88; $$ SCZ027-028-034-036>038-045-046-048>050-GAZ119-141-301900- ...LAKE AND SUPPLEMENTAL COASTAL OBSERVATIONS... STATION/POSITION TIME TEMP WIND PRES WAVE SWELL AIR SEA DIR/SP/G HT/PER HT/PER/DIR (UTC) (F) (DEG/KT/KT) (MB) (FT/S) (FT/S/D) UPR LAKE MARION NOT AVBL WINYAH BAY 1745 85 110/ 5 1013.0S LAKE MURRAY 1700 89 190/ 6/ 7 1013.9F ACE BASIN NERRS 1700 91 CALM 1015.0S FORT PULASKI 1800 87 87 150/ 6/ 9 1014.8F SAPELO ISLAND 1800 92 130/ 7 1015.0S $$ ANZ835-935-AMZ111-154-330-350-352-354-370-450-454-472-301900- ...C-MAN AND BUOY OBSERVATIONS... STATION/POSITION TIME TEMP WIND PRES WAVE SWELL AIR SEA DIR/SP/G HT/PER HT/PER/DIR (UTC) (F) (DEG/KT/KT) (MB) (FT/S) (FT/S/D) BUOY 41004 1750 82 85 340/ 12/ 16 1013.3F 3/ 8 2/ 8 BUOY 41008 1750 82 85 80/ 2/ 4 1015.0F 2/ 7 2/110/ 7 FOLLY BEACH CMAN 1800 83 150/ 8/ 9 1014.1F CAPERS NEARSHORE 1708 83 130/ 4/ 8 1014.5F FRIPP NEARSHORE 1700 86 90/ 4/ 8 1014.7F STATION/POSITION TIME TEMP WIND PRES WAVE SWELL AIR SEA DIR/SP/G HT/PER HT/PER/DIR (UTC) (F) (DEG/KT/KT) (MB) (FT/S) (FT/S/D) 5E ST. MARYS GA 1721 85 N/A 2/ 5 FRYING PAN BUOY 1750 82 85 20/ 8/ 10 1013.9F 4/ 8 3/160/ 8 BUOY 41025 1750 84 85 180/ 19/ 23 1014.3F 4/ 5 2/100/10 CAPE LOOKOUT NC 1800 84 180/ 8/ 9 1013.7F BUOY 41002 1750 83 81 200/ 23/ 27 1014.7F 9/ 8 3/120/11 BUOY 41010 1720 81 84 240/ 12/ 14 1016.0F ST AUGUSTINE FL 1800 81 84 50/ 7/ 8 1015.4F $$

USA.gov is the U.S. government's official web portal to all federal, state and local government web resources and services.